359  
ASUS45 KPSR 180210  
RWRAZ  
 
ARIZONA HOURLY REGIONAL WEATHER ROUNDUP  
NATIONAL WEATHER SERVICE PHOENIX AZ  
700 PM MST SAT FEB 17 2018  
 
NOTE: FAIR INDICATES FEW OR NO CLOUDS BELOW 12,000 FEET WITH NO  
SIGNIFICANT WEATHER AND/OR S TO VISIBILITY
.  
 
AZZ001>003-036-180300-  
NORTHWEST ARIZONA  
 
CITY SKY/WX TMP DP RH WIND PRES REMARKS
 
BULLHEAD CITY PTCLDY 66 12 12 S3 30.03S  
KINGMAN PTCLDY 53 27 36 SW9 30.09S  

 
 
AZZ004>008-015-016-018-180300-  
NORTH CENTRAL ARIZONA  
 
CITY SKY/WX TMP DP RH WIND PRES REMARKS
 
GRAND CANYON PTCLDY 34 25 69 CALM 30.16S  
WILLIAMS PTCLDY 45 21 39 S7 30.15S  
PRESCOTT CLEAR 52 31 44 SW8 30.13R  
FLAGSTAFF PTCLDY 38 25 59 CALM 30.18S  
PAYSON PTCLDY 50 36 57 CALM 30.15R  
PAGE CLEAR 47 23 38 CALM 30.07S  

 
 
AZZ009>014-017-180300-  
NORTHEAST ARIZONA  
 
CITY SKY/WX TMP DP RH WIND PRES REMARKS
 
WINSLOW MOCLDY 50 14 23 SE3 30.12S  
SAINT JOHNS MOCLDY 47 35 63 CALM 30.14S  
WINDOW ROCK MOCLDY 42 25 50 S5 30.18R  
SHOW LOW MOCLDY 46 30 53 S6 30.18S  

 
 
AZZ540-542>544-546-548-180300-  
GREATER PHOENIX AREA  
 
CITY SKY/WX TMP DP RH WIND PRES REMARKS
 
PHOENIX MOCLDY 68 46 45 CALM 30.03F  
BUCKEYE MOCLDY 63 46 55 CALM 30.05S  
GLENDALE MOCLDY 66 46 48 CALM 30.05F  
LUKE AFB MOCLDY 64 49 59 NW3 30.03S  
DEER VALLEY MOCLDY 64 45 49 N3 30.05S  
SCOTTSDALE MOCLDY 66 45 46 CALM 30.06S  
MESA-FALCON MOCLDY 66 45 45 VRB5 30.06S  
MESA-GATEWAY MOCLDY 66 48 52 CALM 30.06S  
CHANDLER MOCLDY 66 46 48 CALM 30.05S  

 
 
AZZ539-553-180300-  
SOUTHWEST MARICOPA COUNTY AND PINAL COUNTY  
 
CITY SKY/WX TMP DP RH WIND PRES REMARKS
 
CASA GRANDE N/A 64 49 57 CALM 30.07S  
GILA BEND FAIR 67 47 48 CALM 30.04S  

 
 
AZZ503-504-507>509-180300-  
SOUTHEAST ARIZONA  
 
CITY SKY/WX TMP DP RH WIND PRES REMARKS
 
TUCSON CLOUDY 64 52 64 N7 30.09R  
DAVIS-MONTHAN MOCLDY 62 52 70 NW8 30.07S  
RYAN FIELD CLEAR 63 54 72 NW8 30.09S  
NOGALES CLOUDY 60 48 64 W5 30.10S  
SIERRA VISTA CLOUDY 56 49 75 CALM 30.15R  
DOUGLAS CLOUDY 58 49 72 SE8 30.13S  
SAFFORD MOCLDY 59 49 69 CALM 30.10S  

 
 
AZZ532-180300-  
SOUTHWEST ARIZONA  
 
CITY SKY/WX TMP DP RH WIND PRES REMARKS
 
YUMA MOCLDY 66 24 20 SW6 30.03F  

 
 
CAZ041-043-047-048-061-525>527-560>570-180300-  
SOUTHERN CALIFORNIA  
 
CITY SKY/WX TMP DP RH WIND PRES REMARKS
 
DOWNTOWN L.A. CLEAR 64 41 42 W5 30.04R  
L.A. AIRPORT PTCLDY 61 55 81 W12 30.05R  
SAN DIEGO MOCLDY 64 46 52 NW8 30.06R  
BURBANK CLEAR 66 35 31 S6 30.04R  
ONTARIO PTCLDY 68 33 27 SW9 30.03R  
RIVERSIDE PTCLDY 67 29 24 W8 30.03R  
PALM SPRINGS PTCLDY 69 18 14 CALM 30.04S  
EL CENTRO NAS PTCLDY 65 22 19 S5 30.05S  
IMPERIAL PTCLDY 67 19 16 S3 30.02F  
BLYTHE PTCLDY 67 30 25 S3 30.03F  
NEEDLES PTCLDY 67 22 18 S3 30.03F  

 
 
NVZ020-UTZ003-180300-  
SOUTHERN NEVADA-UTAH  
 
CITY SKY/WX TMP DP RH WIND PRES REMARKS
 
LAS VEGAS PTCLDY 61 16 17 E3 30.03F  
SALT LAKE CITY MOCLDY 56 14 19 S16G24 29.86F  

 
 
NMZ009-TXZ055-180300-  
NEW MEXICO-WEST TEXAS  
 
CITY SKY/WX TMP DP RH WIND PRES REMARKS
 
ALBUQUERQUE MOCLDY 51 25 36 S8 30.16S  
EL PASO CLOUDY 57 47 69 N7 30.15S  

 
 
   
.......................KEY.....................
 
 
SKY/WX - SKY CONDITION/WEATHER  
TMP - TEMPERATURE IN FAHRENHEIT  
DP - DEW POINT IN FAHRENHEIT  
RH - RELATIVE HUMIDITY IN PERCENT  
WIND - DIRECTION AND SPEED IN MILES PER HOUR (MPH)  
VRB - VARIABLE WIND DIRECTION  
PRES - MEAN SEA LEVEL PRESSURE IN INCHES OF MERCURY  
F - FALLING PRESSURE R - RISING PRESSURE  
S - STEADY PRESSURE  
VSB - VISIBILITY IN MILES  
HX - HEAT INDEX IN FAHRENHEIT  
WCI - WIND CHILL INDEX IN FAHRENHEIT  
TC - TEMPERATURE IN CELSIUS WHICH IS ALSO KNOWN AS  
TEMPERATURE IN CENTIGRADE  
AFB - AIR FORCE BASE  
LUKE AFB IS LUKE AIR FORCE BASE  
DAVIS-MONTHAN IS DAVIS-MONTHAN AIR FORCE BASE  
NAS - NAVAL AIR STATION  
EL CENTRO NAS IS EL CENTRO NAVAL AIR STATION  
N/A - NOT AVAILABLE  
 
 
 
CLICK HERE TO GO TO PREVIOUS BULLETINS.

The Nexlab AZ Page Main Text Page